Regional Weather Roundup
Issued by NWS

Home | Current Version | Previous Version | Graphics & Text | Print | Product List | Glossary On
Versions: 1 2 3 4 5 6 7 8 9 10 11 12 13 14 15 16 17 18 19 20 21 22 23 24 25 26 27 28 29 30 31 32 33 34 35 36 37 38 39 40 41 42 43 44 45 46 47 48 49 50
000
ASUS43 KLSX 250807
RWRMO

WEATHER SUMMARY FOR MISSOURI
NATIONAL WEATHER SERVICE SPRINGFIELD MO
300 AM CDT FRI JUL 25 2014

NOTE: "FAIR" INDICATES FEW OR NO CLOUDS BELOW 12,000 FEET WITH NO
       SIGNIFICANT WEATHER AND/OR OBSTRUCTIONS TO VISIBILITY.
       CURRENT SKY AND/OR WEATHER CONDITIONS ARE NOT AVAILABLE FOR
       CHILLICOTHE AND FARMINGTON.

MOZ001>031-035>038-043-044-053-054-250900-
...NORTHERN AND WESTERN MISSOURI...

CITY           SKY/WX    TMP DP  RH WIND       PRES   REMARKS
KANSAS CTY INT MOCLDY    71  58  63 S14       29.91F
KANSAS C DTWN  MOCLDY    74  58  57 S10       29.90F
LEE`S SUMMIT   MOCLDY    71  58  63 S12G20    29.92F
ST JOSEPH      MOCLDY    70  60  70 S10       29.88F
CHILLICOTHE      N/A     68  57  68 S8        29.93F
KIRKSVILLE     CLOUDY    64  55  72 SE12      29.97F

$$
MOZ066>068-077>081-088>096-101>105-250900-
...SOUTHWEST MISSOURI...

CITY           SKY/WX    TMP DP  RH WIND       PRES   REMARKS
SPRINGFIELD    CLEAR     68  58  70 S10       30.01F
JOPLIN         CLEAR     69  62  78 S7        30.00S

$$
MOZ032>034-039>042-045>050-055>058-069>072-250900-
...CENTRAL MISSOURI...

CITY           SKY/WX    TMP DP  RH WIND       PRES   REMARKS
COLUMBIA       CLEAR     62  55  77 SE7       30.00F
JEFFERSON CITY CLEAR     62  55  77 SE7       29.99F
ROLLA          CLEAR     63  54  72 SE9       30.01F
SEDALIA        PTCLDY    66  56  70 S9        29.97F
WHITEMAN AFB   CLEAR     66  49  54 S8        29.94F
OSAGE BEACH    CLEAR     63  54  72 SE5       30.01S

$$
MOZ051-052-059>065-250900-
...EAST CENTRAL MISSOURI...

CITY           SKY/WX    TMP DP  RH WIND       PRES   REMARKS
ST LOUIS INTL  PTCLDY    66  56  70 E5        30.06R
SPIRIT OF STL  CLEAR     59  55  87 CALM      30.03S
ST CHARLES     CLEAR     60  55  83 E6        30.03F

$$
MOZ072>076-082>087-097>100-106>115-250900-
...SOUTH CENTRAL AND SOUTHEAST MISSOURI...

CITY           SKY/WX    TMP DP  RH WIND       PRES   REMARKS
CAPE GIRARDEAU CLEAR     60  58  92 CALM      30.04S FOG
FARMINGTON     CLEAR     57  55  94 CALM      30.08R
POPLAR BLUFF   CLEAR     61  58  90 CALM      30.03F
WEST PLAINS    CLEAR     62  55  77 CALM      30.08R

$$


USA.gov is the U.S. government's official web portal to all federal, state and local government web resources and services.